This is the latest recevied weather packets stored in our database for station/object IW8PDD-3. If no packets are shown the sender has not sent any weather packets the latest 10 day(s).
| Time | Temp. | Humidity | Pressure | Rain* | Wind** | Luminosity | Snow |
|---|---|---|---|---|---|---|---|
| 1777997925 | 20° C | 62% | 1017.2 hPa | - | - | - | - |
| 1777996722 | 20° C | 61% | 1017.1 hPa | - | - | - | - |
| 1777994315 | 22.78° C | 58% | 1016.7 hPa | - | - | - | - |
| 1777993111 | 21.11° C | 59% | 1017 hPa | - | - | - | - |
| 1777991908 | 21.67° C | 57% | 1017.1 hPa | - | - | - | - |
| 1777990704 | 22.78° C | 56% | 1017.1 hPa | - | - | - | - |
| 1777989501 | 25.56° C | 54% | 1017.1 hPa | - | - | - | - |
| 1777987094 | 26.11° C | 55% | 1017.3 hPa | - | - | - | - |
| 1777985890 | 23.89° C | 56% | 1017.5 hPa | - | - | - | - |
| 1777984687 | 23.89° C | 57% | 1017.6 hPa | - | - | - | - |
| 1777983483 | 22.22° C | 58% | 1017.5 hPa | - | - | - | - |
| 1777982280 | 23.33° C | 57% | 1017.6 hPa | - | - | - | - |
| 1777981077 | 23.33° C | 58% | 1017.8 hPa | - | - | - | - |
| 1777979873 | 22.22° C | 59% | 1017.9 hPa | - | - | - | - |
| 1777978670 | 21.11° C | 60% | 1017.9 hPa | - | - | - | - |
| 1777977466 | 20.56° C | 60% | 1018.1 hPa | - | - | - | - |
| 1777976263 | 20.56° C | 59% | 1018 hPa | - | - | - | - |
| 1777975059 | 21.11° C | 58% | 1018.1 hPa | - | - | - | - |
| 1777973856 | 20.56° C | 58% | 1018.1 hPa | - | - | - | - |
| 1777972652 | 20.56° C | 57% | 1018.2 hPa | - | - | - | - |
| 1777971449 | 21.11° C | 57% | 1018.1 hPa | - | - | - | - |
| 1777970245 | 20° C | 58% | 1018.2 hPa | - | - | - | - |
| 1777969042 | 20.56° C | 58% | 1018.3 hPa | - | - | - | - |
| 1777967839 | 20° C | 58% | 1018.1 hPa | - | - | - | - |
| 1777966635 | 20° C | 59% | 1018 hPa | - | - | - | - |
* Rain since midnight (hover to see other rain measurements)
** Current wind speed in m/s (hover to see current wind gust speed)